WA5KWK Weather Reports


Display with metric or nautical units.
time (UTC)temp
F
wind
direction
speed
MPH
gust
MPH
rain 1hr
in
rain 24hr
in
rain mn
in
humidity
%
barometer
mb
20260509070505 60 262 0.0 0.0 0.00 0.00 0.00 77 1015.7
20260509070004 60 262 0.0 0.0 0.00 0.00 0.00 78 1015.7
20260509065505 60 262 0.0 0.0 0.00 0.00 0.00 78 1015.8
20260509065004 60 262 0.0 0.0 0.00 0.00 0.00 78 1015.7
20260509064504 60 262 0.0 0.0 0.00 0.00 0.00 78 1015.7
20260509064004 59 262 0.0 0.0 0.00 0.00 0.00 78 1015.7
20260509063504 59 262 0.0 0.0 0.00 0.00 0.00 78 1015.6
20260509063004 59 262 0.0 0.0 0.00 0.00 0.00 78 1015.9
20260509062504 59 262 0.0 0.0 0.00 0.00 0.00 78 1015.9
20260509062005 59 262 0.0 1.0 0.00 0.00 0.00 78 1015.9
20260509061504 59 262 0.0 1.0 0.00 0.00 0.00 79 1015.9
20260509061004 59 262 1.0 2.0 0.00 0.00 0.00 79 1016.0
20260509060504 59 262 1.0 2.0 0.00 0.00 0.00 79 1016.0
20260509060005 59 262 1.0 2.0 0.00 0.00 0.00 80 1016.0
20260509055505 59 262 1.0 2.0 0.00 0.00 0.00 81 1016.0
20260509055004 59 262 1.0 2.0 0.00 0.00 0.00 81 1016.0
20260509054504 59 262 1.0 3.0 0.00 0.00 0.00 81 1016.0
20260509054004 59 262 2.0 3.0 0.00 0.00 0.00 81 1016.0
20260509053504 60 262 2.0 3.0 0.00 0.00 0.00 80 1016.0
20260509053004 60 262 2.0 3.0 0.00 0.00 0.00 80 1016.0
20260509052504 60 262 2.0 3.0 0.00 0.00 0.00 79 1015.9
20260509050504 61 262 1.0 2.0 0.00 0.00 0.00 78 1016.1
20260509050004 61 262 0.0 0.0 0.00 0.00 0.00 78 1016.0
20260509045503 62 262 1.0 2.0 0.00 0.00 0.00 77 1015.9
20260509044504 62 262 0.0 0.0 0.00 0.00 0.00 76 1016.0
20260509043504 62 262 0.0 0.0 0.00 0.00 0.00 76 1016.3
20260509043004 62 262 0.0 0.0 0.00 0.00 0.00 75 1015.9
20260509042004 63 262 0.0 0.0 0.00 0.00 0.00 75 1015.8
20260509041504 63 262 0.0 0.0 0.00 0.00 0.00 74 1015.8
20260509041004 63 262 0.0 1.0 0.00 0.00 0.00 74 1015.8
20260509040504 63 262 0.0 0.0 0.00 0.00 0.00 73 1015.9
20260509040005 64 262 0.0 1.0 0.00 0.00 0.00 73 1016.0
20260509035004 64 262 0.0 1.0 0.00 0.00 0.00 71 1015.9
20260509034503 65 262 0.0 1.0 0.00 0.00 0.00 70 1015.9
20260509034004 65 262 0.0 0.0 0.00 0.00 0.00 70 1016.0
20260509033504 66 262 0.0 1.0 0.00 0.00 0.00 69 1016.0
20260509033006 66 262 0.0 1.0 0.00 0.00 0.00 67 1016.0
20260509032503 66 262 0.0 1.0 0.00 0.00 0.00 66 1015.9
20260509031504 67 262 0.0 1.0 0.00 0.00 0.00 65 1015.7
20260509031004 68 262 0.0 2.0 0.00 0.00 0.00 64 1015.7
20260509030504 68 262 0.0 3.0 0.00 0.00 0.00 63 1015.7
20260509025504 69 262 0.0 1.0 0.00 0.00 0.00 63 1015.7
20260509024504 69 262 0.0 2.0 0.00 0.00 0.00 62 1015.7
20260509024004 70 262 1.0 3.0 0.00 0.00 0.00 61 1015.6
20260509023504 70 262 0.0 2.0 0.00 0.00 0.00 60 1015.6
20260509023004 70 262 1.0 3.0 0.00 0.00 0.00 60 1015.4
20260509022504 71 261 2.0 3.0 0.00 0.00 0.00 59 1015.5
20260509022004 71 257 3.0 7.0 0.00 0.00 0.00 58 1015.6
20260509021503 71 271 2.0 6.0 0.00 0.00 0.00 58 1015.5
20260509020504 73 267 2.0 3.0 0.00 0.00 0.00 56 1015.7
20260509020004 73 267 3.0 7.0 0.00 0.00 0.00 54 1015.7
20260509015504 73 270 1.0 7.0 0.00 0.00 0.00 55 1015.6
20260509015004 74 264 2.0 7.0 0.00 0.00 0.00 54 1015.8
20260509014504 74 270 1.0 3.0 0.00 0.00 0.00 54 1015.6
20260509014004 74 288 2.0 7.0 0.00 0.00 0.00 53 1015.7
20260509013504 74 257 2.0 7.0 0.00 0.00 0.00 53 1015.7
20260509012005 75 272 1.0 5.0 0.00 0.00 0.00 53 1015.8
20260509011505 75 241 3.0 7.0 0.00 0.00 0.00 52 1015.9
20260509011005 75 253 3.0 5.0 0.00 0.00 0.00 52 1015.9
20260509010005 76 260 1.0 6.0 0.00 0.00 0.00 51 1016.0
20260509005505 76 282 3.0 7.0 0.00 0.00 0.00 51 1016.0
20260509005005 76 299 2.0 5.0 0.00 0.00 0.00 50 1016.0
20260509004505 76 266 2.0 3.0 0.00 0.00 0.00 52 1016.2
20260509004005 76 281 2.0 3.0 0.00 0.00 0.00 50 1016.0
20260509003505 76 289 2.0 6.0 0.00 0.00 0.00 50 1016.3
20260509003005 76 236 3.0 7.0 0.00 0.00 0.00 49 1016.3
20260509002505 76 294 2.0 8.0 0.00 0.00 0.00 50 1016.3
20260509002005 76 225 4.0 8.0 0.00 0.00 0.00 50 1016.2
20260509001005 77 266 2.0 6.0 0.00 0.00 0.00 47 1016.4
20260509000505 76 225 2.0 5.0 0.00 0.00 0.00 52 1016.4
20260508235504 76 267 3.0 9.0 0.00 0.00 0.00 47 1016.5
20260508235005 76 248 2.0 5.0 0.00 0.00 0.00 49 1016.4
20260508234505 75 268 1.0 7.0 0.00 0.00 0.00 48 1016.5
20260508234005 75 264 3.0 8.0 0.00 0.00 0.00 48 1016.5
20260508233006 76 259 3.0 6.0 0.00 0.00 0.00 49 1016.6
20260508232506 77 274 3.0 6.0 0.00 0.00 0.00 47 1016.6
20260508231505 76 219 3.0 8.0 0.00 0.00 0.00 46 1016.6
20260508231005 76 205 2.0 7.0 0.00 0.00 0.00 45 1016.6
20260508230505 75 262 3.0 10.0 0.00 0.00 0.00 46 1016.6
20260508225505 76 266 4.0 9.0 0.00 0.00 0.00 45 1016.8
20260508224505 76 250 4.0 7.0 0.00 0.00 0.00 42 1017.0
20260508223505 77 300 3.0 7.0 0.00 0.00 0.00 39 1017.1
20260508223005 76 288 2.0 3.0 0.00 0.00 0.00 40 1017.0
20260508222504 76 271 3.0 8.0 0.00 0.00 0.00 39 1017.0
20260508222005 76 257 4.0 8.0 0.00 0.00 0.00 43 1017.1
20260508221505 75 42 2.0 6.0 0.00 0.00 0.00 45 1017.2
20260508221005 75 216 6.0 10.0 0.00 0.00 0.00 48 1017.2
20260508220505 76 191 4.0 9.0 0.00 0.00 0.00 51 1017.4
20260508220005 76 279 3.0 9.0 0.00 0.00 0.00 50 1017.2
20260508215505 75 250 5.0 9.0 0.00 0.00 0.00 48 1017.4
20260508215006 76 275 3.0 9.0 0.00 0.00 0.00 49 1017.4
20260508214505 75 300 2.0 5.0 0.00 0.00 0.00 48 1017.5
20260508214005 75 263 4.0 9.0 0.00 0.00 0.00 46 1017.4
20260508213504 75 212 4.0 10.0 0.00 0.00 0.00 52 1017.6
20260508213005 75 272 5.0 8.0 0.00 0.00 0.00 52 1017.6
20260508212505 74 292 4.0 6.0 0.00 0.00 0.00 46 1017.6
20260508212005 74 215 5.0 12.0 0.00 0.00 0.00 54 1017.7
20260508211505 74 209 5.0 10.0 0.00 0.00 0.00 54 1017.8
20260508211005 74 227 3.0 9.0 0.00 0.00 0.00 55 1017.6
20260508210504 75 183 4.0 9.0 0.00 0.00 0.00 53 1017.8
20260508210008 74 244 5.0 9.0 0.00 0.00 0.00 54 1017.6
20260508205505 74 188 7.0 13.0 0.00 0.00 0.00 54 1017.8
20260508205005 75 196 5.0 9.0 0.00 0.00 0.00 52 1017.8
20260508203505 75 226 3.0 8.0 0.00 0.00 0.00 55 1017.7
20260508203005 75 283 3.0 7.0 0.00 0.00 0.00 55 1017.8
20260508202505 75 213 4.0 9.0 0.00 0.00 0.00 54 1017.9
20260508202005 76 197 6.0 13.0 0.00 0.00 0.00 53 1017.9
20260508201506 76 252 4.0 9.0 0.00 0.00 0.00 54 1017.7
20260508201005 76 222 4.0 10.0 0.00 0.00 0.00 51 1017.8
20260508200504 76 233 3.0 8.0 0.00 0.00 0.00 55 1017.8
20260508200005 76 269 4.0 8.0 0.00 0.00 0.00 51 1017.7
20260508195505 76 202 3.0 7.0 0.00 0.00 0.00 55 1017.8
20260508195005 75 249 4.0 8.0 0.00 0.00 0.00 51 1018.0
20260508194505 75 189 4.0 8.0 0.00 0.00 0.00 53 1017.7
20260508194005 75 248 3.0 9.0 0.00 0.00 0.00 49 1017.8
20260508193504 75 199 5.0 9.0 0.00 0.00 0.00 51 1017.9
20260508192505 76 231 4.0 8.0 0.00 0.00 0.00 51 1018.1
20260508192005 76 237 3.0 7.0 0.00 0.00 0.00 50 1018.0
20260508191505 76 180 5.0 8.0 0.00 0.00 0.00 49 1018.0
20260508191005 76 213 6.0 9.0 0.00 0.00 0.00 49 1018.3
20260508190505 76 189 2.0 6.0 0.00 0.00 0.00 49 1018.2
20260508190005 76 171 4.0 8.0 0.00 0.00 0.00 47 1018.1
20260508185505 76 221 5.0 8.0 0.00 0.00 0.00 49 1017.9
20260508185005 76 213 5.0 9.0 0.00 0.00 0.00 46 1018.0
20260508184504 76 174 3.0 12.0 0.00 0.00 0.00 46 1018.0
20260508184005 75 192 4.0 7.0 0.00 0.00 0.00 50 1018.3
20260508182505 75 224 2.0 7.0 0.00 0.00 0.00 48 1018.3
20260508182005 75 193 3.0 6.0 0.00 0.00 0.00 50 1018.2
20260508181505 75 189 3.0 7.0 0.00 0.00 0.00 49 1018.3
20260508181005 75 185 2.0 6.0 0.00 0.00 0.00 51 1018.2
20260508180004 74 196 3.0 8.0 0.00 0.00 0.00 45 1018.2
20260508175004 74 223 3.0 6.0 0.00 0.00 0.00 48 1018.2
20260508174505 74 198 4.0 6.0 0.00 0.00 0.00 44 1018.2
20260508174004 74 207 2.0 6.0 0.00 0.00 0.00 44 1018.3
20260508173505 74 220 4.0 6.0 0.00 0.00 0.00 44 1018.1
20260508173005 74 172 3.0 6.0 0.00 0.00 0.00 46 1018.2
20260508172504 73 226 3.0 6.0 0.00 0.00 0.00 43 1018.2
20260508172005 73 249 5.0 7.0 0.00 0.00 0.00 43 1018.1
20260508165504 72 182 3.0 7.0 0.00 0.00 0.00 45 1018.0
20260508165005 71 241 3.0 5.0 0.00 0.00 0.00 45 1018.1
20260508164504 71 247 3.0 5.0 0.00 0.00 0.00 45 1017.9
20260508164004 71 259 2.0 3.0 0.00 0.00 0.00 46 1018.0
20260508163004 70 261 2.0 3.0 0.00 0.00 0.00 48 1018.0
20260508162505 70 265 2.0 3.0 0.00 0.00 0.00 47 1018.0
20260508162005 70 265 2.0 5.0 0.00 0.00 0.00 47 1018.1
20260508161505 70 336 2.0 3.0 0.00 0.00 0.00 47 1018.0
20260508161005 70 350 2.0 3.0 0.00 0.00 0.00 44 1018.0
20260508160505 70 15 2.0 3.0 0.00 0.00 0.00 44 1017.9
20260508160005 71 55 0.0 2.0 0.00 0.00 0.00 42 1017.9
20260508155005 72 57 0.0 0.0 0.00 0.00 0.00 43 1018.0
20260508154505 71 57 0.0 0.0 0.00 0.00 0.00 47 1017.9
20260508154004 70 57 0.0 0.0 0.00 0.00 0.00 49 1017.8
20260508153504 69 57 0.0 0.0 0.00 0.00 0.00 47 1017.9
20260508153005 69 57 0.0 0.0 0.00 0.00 0.00 52 1017.9
20260508152504 68 57 0.0 0.0 0.00 0.00 0.00 52 1017.9
20260508151504 67 57 0.0 0.0 0.00 0.00 0.00 61 1018.1
20260508151004 66 57 0.0 0.0 0.00 0.00 0.00 60 1017.9
20260508150504 65 57 0.0 0.0 0.00 0.00 0.00 56 1017.8
20260508145504 64 57 0.0 0.0 0.00 0.00 0.00 57 1017.8
20260508144505 62 57 0.0 0.0 0.00 0.00 0.00 62 1017.5
20260508144004 62 57 0.0 0.0 0.00 0.00 0.00 60 1017.6
20260508143005 62 57 0.0 0.0 0.00 0.00 0.00 58 1017.5
20260508142504 61 57 0.0 0.0 0.00 0.00 0.00 55 1017.5
20260508142005 61 57 1.0 2.0 0.00 0.00 0.00 53 1017.6
20260508141504 60 57 1.0 2.0 0.00 0.00 0.00 53 1017.6
20260508141005 60 57 1.0 3.0 0.00 0.00 0.00 52 1017.6
20260508140004 63 57 2.0 3.0 0.00 0.00 0.00 52 1017.3
20260508135504 64 57 1.0 2.0 0.00 0.00 0.00 47 1017.2
20260508135004 64 57 1.0 3.0 0.00 0.00 0.00 46 1017.1
20260508134505 63 57 1.0 3.0 0.00 0.00 0.00 45 1017.1
20260508134005 62 57 2.0 3.0 0.00 0.00 0.00 47 1017.1
20260508132504 62 57 1.0 2.0 0.00 0.00 0.00 46 1017.1
20260508132005 61 57 1.0 2.0 0.00 0.00 0.00 46 1017.0
20260508131505 61 57 2.0 3.0 0.00 0.00 0.00 47 1017.0
20260508131005 61 57 2.0 3.0 0.00 0.00 0.00 47 1017.0
20260508130505 61 58 1.0 3.0 0.00 0.00 0.00 47 1017.0
20260508130005 61 58 1.0 2.0 0.00 0.00 0.00 47 1016.9
20260508125504 61 58 2.0 3.0 0.00 0.00 0.00 47 1017.0
20260508125004 61 58 2.0 3.0 0.00 0.00 0.00 47 1017.0
20260508124504 61 58 1.0 3.0 0.00 0.00 0.00 47 1017.0
20260508123504 62 58 2.0 3.0 0.00 0.00 0.00 47 1016.9
20260508122504 62 58 2.0 2.0 0.00 0.00 0.00 45 1016.9
20260508122005 63 58 2.0 3.0 0.00 0.00 0.00 45 1016.9
20260508121504 63 58 1.0 3.0 0.00 0.00 0.00 44 1016.9
20260508121005 64 58 1.0 2.0 0.00 0.00 0.00 43 1017.0
20260508120504 65 58 2.0 2.0 0.00 0.00 0.00 43 1017.0
20260508120004 66 58 2.0 3.0 0.00 0.00 0.00 41 1016.9
20260508115505 66 58 3.0 3.0 0.00 0.00 0.00 41 1016.9
20260508115004 66 58 2.0 3.0 0.00 0.00 0.00 40 1016.8
20260508114504 66 59 3.0 3.0 0.00 0.00 0.00 40 1016.9
20260508113005 64 61 3.0 5.0 0.00 0.00 0.00 44 1016.9
20260508112504 63 55 2.0 3.0 0.00 0.00 0.00 48 1016.9
20260508112005 62 306 2.0 3.0 0.00 0.00 0.00 51 1016.8
20260508111504 61 304 0.0 0.0 0.00 0.00 0.00 54 1017.1
20260508111004 62 304 0.0 0.0 0.00 0.00 0.00 54 1017.1
20260508110505 62 304 0.0 0.0 0.00 0.00 0.00 55 1017.3
20260508110004 61 304 0.0 0.0 0.00 0.00 0.00 56 1017.0
20260508105004 61 304 0.0 0.0 0.00 0.00 0.00 53 1017.1
20260508103505 61 304 0.0 0.0 0.00 0.00 0.00 51 1017.2
20260508103005 60 304 0.0 0.0 0.00 0.00 0.00 51 1017.2
20260508102504 60 304 0.0 0.0 0.00 0.00 0.00 52 1017.1
20260508102005 60 304 0.0 0.0 0.00 0.00 0.00 52 1017.1
20260508101506 60 304 0.0 0.0 0.00 0.00 0.00 52 1017.2
20260508101005 60 304 0.0 0.0 0.00 0.00 0.00 52 1017.1
20260508100504 61 304 0.0 0.0 0.00 0.00 0.00 50 1017.3
20260508095504 63 304 0.0 0.0 0.00 0.00 0.00 48 1017.3
20260508095004 63 304 0.0 0.0 0.00 0.00 0.00 48 1017.2
20260508094505 62 304 0.0 0.0 0.00 0.00 0.00 49 1017.2
20260508094004 62 304 0.0 0.0 0.00 0.00 0.00 49 1017.2
20260508092005 61 304 0.0 0.0 0.00 0.00 0.00 52 1017.2
20260508091505 61 304 0.0 2.0 0.00 0.00 0.00 53 1017.0
20260508091004 61 304 1.0 2.0 0.00 0.00 0.00 52 1016.9
20260508090005 60 304 1.0 2.0 0.00 0.00 0.00 51 1017.0
20260508085504 61 304 1.0 2.0 0.00 0.00 0.00 50 1016.9
20260508085005 61 304 2.0 3.0 0.00 0.00 0.00 51 1017.0
20260508084504 62 304 1.0 2.0 0.00 0.00 0.00 49 1016.9
20260508084004 62 304 0.0 0.0 0.00 0.00 0.00 47 1017.0
20260508083504 62 304 0.0 0.0 0.00 0.00 0.00 47 1017.0
20260508083004 62 304 0.0 0.0 0.00 0.00 0.00 48 1016.9
20260508082505 62 304 0.0 0.0 0.00 0.00 0.00 49 1016.9
20260508082004 63 304 0.0 0.0 0.00 0.00 0.00 48 1016.9
20260508081004 63 304 0.0 2.0 0.00 0.00 0.00 47 1016.9
20260508080504 63 304 1.0 2.0 0.00 0.00 0.00 49 1016.9
20260508080005 63 304 1.0 3.0 0.00 0.00 0.00 51 1017.0
20260508075504 63 304 2.0 3.0 0.00 0.00 0.00 55 1016.8
20260508075005 61 304 2.0 3.0 0.00 0.00 0.00 54 1016.9
20260508074504 59 304 2.0 3.0 0.00 0.00 0.00 62 1017.0
20260508074004 59 304 2.0 3.0 0.00 0.00 0.00 70 1017.2
20260508073504 60 304 2.0 3.0 0.00 0.00 0.00 70 1017.1
20260508073005 60 304 2.0 3.0 0.00 0.00 0.00 71 1017.2
20260508072503 61 304 2.0 3.0 0.00 0.00 0.00 72 1017.2
20260508072005 62 304 2.0 3.0 0.00 0.00 0.00 70 1017.1
20260508071504 62 304 0.0 0.0 0.00 0.00 0.00 67 1017.2
20260508071005 62 304 0.0 0.0 0.00 0.00 0.00 71 1017.4